TimeCST,TemperatureF,Dew PointF,Humidity,Sea Level PressureIn,VisibilityMPH,Wind Direction,Wind SpeedMPH,Gust SpeedMPH,PrecipitationIn,Events,Conditions,WindDirDegrees,DateUTC
12:16 AM,8.6,6.8,92,30.10,3.0,North,5.8,-,N/A,Snow,Light Snow,350,2012-12-23 06:16:00
12:36 AM,8.6,6.8,92,30.10,5.0,North,4.6,-,N/A,Snow,Light Snow,360,2012-12-23 06:36:00
12:56 AM,8.6,6.8,92,30.10,5.0,North,4.6,-,N/A,Snow,Light Snow,350,2012-12-23 06:56:00
1:16 AM,8.6,6.8,92,30.10,7.0,North,4.6,-,N/A,Snow,Light Snow,360,2012-12-23 07:16:00
1:36 AM,8.6,6.8,92,30.11,4.0,NNW,3.5,-,N/A,Snow,Light Snow,330,2012-12-23 07:36:00
1:56 AM,8.6,6.8,92,30.11,7.0,NNW,3.5,-,N/A,Snow,Light Snow,340,2012-12-23 07:56:00
2:16 AM,8.6,6.8,92,30.11,4.0,North,5.8,-,N/A,Snow,Light Snow,10,2012-12-23 08:16:00
2:36 AM,8.6,5.0,85,30.11,5.0,Calm,Calm,-,N/A,Snow,Light Snow,0,2012-12-23 08:36:00
2:56 AM,8.6,5.0,85,30.12,10.0,North,8.1,-,N/A,Snow,Light Snow,360,2012-12-23 08:56:00
3:16 AM,8.6,5.0,85,30.13,10.0,North,6.9,-,N/A,Snow,Light Snow,360,2012-12-23 09:16:00
3:36 AM,8.6,5.0,85,30.12,10.0,Calm,Calm,-,N/A,,Overcast,0,2012-12-23 09:36:00
3:56 AM,8.6,5.0,85,30.13,3.0,North,3.5,-,N/A,Snow,Light Snow,360,2012-12-23 09:56:00
4:16 AM,8.6,5.0,85,30.12,7.0,NNE,4.6,-,N/A,Snow,Light Snow,20,2012-12-23 10:16:00
4:36 AM,8.6,5.0,85,30.12,7.0,North,5.8,-,N/A,Snow,Light Snow,350,2012-12-23 10:36:00
4:56 AM,8.6,5.0,85,30.12,7.0,North,5.8,-,N/A,Snow,Light Snow,360,2012-12-23 10:56:00
5:16 AM,8.6,5.0,85,30.12,10.0,North,6.9,-,N/A,,Overcast,360,2012-12-23 11:16:00
5:36 AM,8.6,5.0,85,30.12,5.0,North,4.6,-,N/A,Snow,Light Snow,360,2012-12-23 11:36:00
5:56 AM,8.6,5.0,85,30.12,7.0,North,5.8,-,N/A,Snow,Light Snow,10,2012-12-23 11:56:00
6:16 AM,6.8,5.0,92,30.12,10.0,North,4.6,-,N/A,Snow,Light Snow,350,2012-12-23 12:16:00
6:36 AM,6.8,5.0,92,30.12,5.0,Calm,Calm,-,N/A,Snow,Light Snow,0,2012-12-23 12:36:00
6:56 AM,8.6,5.0,85,30.12,7.0,Calm,Calm,-,N/A,Snow,Light Snow,0,2012-12-23 12:56:00
7:16 AM,6.8,5.0,92,30.13,10.0,NE,3.5,-,N/A,Snow,Light Snow,50,2012-12-23 13:16:00
7:36 AM,6.8,5.0,92,30.13,10.0,North,3.5,-,N/A,Snow,Light Snow,360,2012-12-23 13:36:00
7:56 AM,6.8,5.0,92,30.13,7.0,NNE,3.5,-,N/A,Snow,Light Snow,30,2012-12-23 13:56:00
8:16 AM,6.8,3.2,85,30.13,10.0,NNE,3.5,-,N/A,Snow,Light Snow,30,2012-12-23 14:16:00
8:36 AM,6.8,5.0,92,30.13,4.0,NNE,3.5,-,N/A,Snow,Light Snow,20,2012-12-23 14:36:00
8:56 AM,8.6,3.2,79,30.13,7.0,Calm,Calm,-,N/A,Snow,Light Snow,0,2012-12-23 14:56:00
9:16 AM,8.6,5.0,85,30.13,5.0,Calm,Calm,-,N/A,Snow,Light Snow,0,2012-12-23 15:16:00
9:36 AM,8.6,5.0,85,30.14,7.0,Calm,Calm,-,N/A,Snow,Light Snow,0,2012-12-23 15:36:00
9:56 AM,8.6,3.2,79,30.13,10.0,Calm,Calm,-,N/A,Snow,Light Snow,0,2012-12-23 15:56:00
10:16 AM,10.4,5.0,79,30.13,10.0,Calm,Calm,-,N/A,,Clear,0,2012-12-23 16:16:00
10:56 AM,10.4,6.8,85,30.12,10.0,Calm,Calm,-,N/A,,Clear,0,2012-12-23 16:56:00
11:16 AM,10.4,6.8,85,30.12,10.0,NNE,3.5,-,N/A,,Clear,30,2012-12-23 17:16:00
11:36 AM,10.4,6.8,85,30.12,10.0,NNE,3.5,-,N/A,,Clear,20,2012-12-23 17:36:00
11:56 AM,10.4,6.8,85,30.11,10.0,Calm,Calm,-,N/A,,Clear,0,2012-12-23 17:56:00
12:16 PM,12.2,6.8,79,30.11,10.0,NNE,3.5,-,N/A,,Clear,20,2012-12-23 18:16:00
12:36 PM,12.2,6.8,79,30.10,10.0,Calm,Calm,-,N/A,,Clear,0,2012-12-23 18:36:00
12:57 PM,12.2,6.8,79,30.10,10.0,Calm,Calm,-,N/A,,Clear,0,2012-12-23 18:57:00
1:16 PM,12.2,6.8,79,30.09,10.0,NNE,4.6,-,N/A,,Clear,30,2012-12-23 19:16:00
1:36 PM,12.2,6.8,79,30.09,10.0,North,4.6,-,N/A,,Clear,360,2012-12-23 19:36:00
1:56 PM,12.2,6.8,79,30.08,10.0,Calm,Calm,-,N/A,,Clear,0,2012-12-23 19:56:00
2:16 PM,12.2,6.8,79,30.09,10.0,North,3.5,-,N/A,,Clear,350,2012-12-23 20:16:00
2:36 PM,12.2,8.6,85,30.08,10.0,Calm,Calm,-,N/A,Snow,Light Snow,0,2012-12-23 20:36:00
2:56 PM,12.2,6.8,79,30.09,10.0,NW,3.5,-,N/A,,Clear,310,2012-12-23 20:56:00
3:16 PM,12.2,8.6,85,30.09,10.0,Calm,Calm,-,N/A,,Clear,0,2012-12-23 21:16:00
3:36 PM,12.2,8.6,85,30.10,10.0,NW,3.5,-,N/A,,Clear,320,2012-12-23 21:36:00
3:56 PM,10.4,6.8,85,30.10,10.0,NW,4.6,-,N/A,,Clear,320,2012-12-23 21:56:00
4:16 PM,10.4,6.8,85,30.10,10.0,Calm,Calm,-,N/A,,Scattered Clouds,0,2012-12-23 22:16:00
4:56 PM,10.4,8.6,92,30.10,10.0,Calm,Calm,-,N/A,,Overcast,0,2012-12-23 22:56:00
5:16 PM,10.4,8.6,92,30.10,10.0,NNW,3.5,-,N/A,,Overcast,340,2012-12-23 23:16:00
5:36 PM,10.4,8.6,92,30.10,10.0,Calm,Calm,-,N/A,,Overcast,0,2012-12-23 23:36:00
5:56 PM,10.4,8.6,92,30.09,10.0,Calm,Calm,-,N/A,,Overcast,0,2012-12-23 23:56:00
6:16 PM,10.4,8.6,92,30.08,10.0,North,3.5,-,N/A,,Overcast,10,2012-12-24 00:16:00
6:36 PM,12.2,8.6,85,30.09,10.0,Calm,Calm,-,N/A,,Overcast,0,2012-12-24 00:36:00
6:56 PM,12.2,8.6,85,30.09,10.0,Calm,Calm,-,N/A,,Overcast,0,2012-12-24 00:56:00
7:16 PM,12.2,8.6,85,30.09,10.0,NNW,4.6,-,N/A,,Scattered Clouds,340,2012-12-24 01:16:00
7:36 PM,12.2,8.6,85,30.08,10.0,North,5.8,-,N/A,,Mostly Cloudy,350,2012-12-24 01:36:00
7:56 PM,12.2,8.6,85,30.07,10.0,Calm,Calm,-,N/A,,Mostly Cloudy,0,2012-12-24 01:56:00
8:16 PM,10.4,8.6,92,30.07,10.0,North,5.8,-,N/A,,Scattered Clouds,360,2012-12-24 02:16:00
8:36 PM,10.4,6.8,85,30.06,10.0,North,4.6,-,N/A,,Mostly Cloudy,10,2012-12-24 02:36:00
8:56 PM,10.4,6.8,85,30.06,10.0,North,4.6,-,N/A,,Overcast,360,2012-12-24 02:56:00
9:16 PM,10.4,6.8,85,30.06,10.0,NNE,5.8,-,N/A,,Overcast,20,2012-12-24 03:16:00
9:36 PM,10.4,6.8,85,30.05,10.0,NNE,4.6,-,N/A,,Overcast,20,2012-12-24 03:36:00
9:56 PM,10.4,6.8,85,30.05,10.0,Calm,Calm,-,N/A,,Overcast,0,2012-12-24 03:56:00
10:16 PM,10.4,6.8,85,30.05,10.0,North,5.8,-,N/A,,Overcast,360,2012-12-24 04:16:00
10:36 PM,8.6,5.0,85,30.04,10.0,North,3.5,-,N/A,,Overcast,10,2012-12-24 04:36:00
10:56 PM,8.6,6.8,92,30.05,10.0,NNW,3.5,-,N/A,,Overcast,340,2012-12-24 04:56:00
11:16 PM,8.6,5.0,85,30.05,10.0,Calm,Calm,-,N/A,,Overcast,0,2012-12-24 05:16:00
11:36 PM,8.6,5.0,85,30.05,10.0,NW,3.5,-,N/A,,Overcast,310,2012-12-24 05:36:00
11:56 PM,8.6,5.0,85,30.05,7.0,NW,3.5,-,N/A,,Overcast,310,2012-12-24 05:56:00